ARIANE 42P DEB, 44509

Orbit data source: Space-Track

ARIANE 42P DEB, 44509 is space debris in LEO originally from a launch on Mon, 10 Aug 1992 UTC launched from the French Guiana (FRGUI). Debris objects in space refer to the collection of defunct objects orbiting the Earth. Examples of debris include non-operational satellites, rocket bodies, and fragments generated from explosions, collisions, or faulty payload assembly.

Loading next visibility...
Identifier
44509, 1992-052G
Orbit
LEO
Country
Flag of FRFR
Related business
Manufacturer
ArianeGroup
Mission
Spacecraft
Bus & Motor
Unknown
Mass
Unknown
Launch date (UTC)
1992-08-10 (33 years ago)
Launch vehicle
Unknown
Launch site
French Guiana (FRGUI)
Object type
Payload
Rocket body
Debris
Shape & HBR
Unknown shape, 0.1 m
Radar Cross Section
Small (<0.1 m²)

Expand to show TLE details & history
Last TLE update: 6 hours ago

TLE from 6 hours ago
0 ARIANE 42P DEB
1 44509U 92052G   25308.37829420  .00001205  00000-0  51578-2 0  9999
2 44509  66.0849  35.7953 0062581  26.6583 333.7629 12.84874916291062
Epoch: 2025-11-04T09:04Z
TLE epoch observation values (Epoch: 2025-11-04T09:04:44.618Z)
Latitude
-0.00008°
Longitude
-144.25682°
Altitude
1,280.681 km
Speed
7.236 km/s
True Right ascension
02h 23m 10s
True Declination
0° 00' 00"
Sunlit
Object was in full shadow at epoch
Visualization orbit readout
Latitude
Unknown
Longitude
Unknown
Altitude
Unknown
Speed
Unknown
Apparent Right ascension
Unknown
Apparent Declination
Unknown
Sunlit
N/A
Visualization observer readout
Local Sidereal Time
11:18:34
Azimuth
Unknown
Elevation
Unknown
Doppler factor
Unknown
Orbital elements
Apogee altitude
1,368.666 km
Perigee altitude
1,272.308 km
Semi-major axis
7,698.624 km
Eccentricity
0.00626
Inclination
66.0849°
RAAN
35.7953°
Arg. of periapsis
26.6583°
True anomaly
333.44363°
Mean anomaly
333.7629°
Eccentric anomaly
333.60349°
Mean motion
3.21309 °/min
Orbital period
112.04 mins
BSTAR
0.0051578
Loading maneuver chart data...
Computing Atmospheric mass density...
Loading historical data...
Loading historical data...
Loading historical data...
Loading historical data...
Loading historical data...
Loading historical data...
Loading historical data...

Documentation

Showing up to 5 results
|